www.pogodaiklimat.ru

Погода и климат >> Архив погоды >> Россия >> Хабаровский край >> Удинск


ПОГОДА в Удинске

  • Прогноз погоды в Удинске
  • Монитор погоды в Удинске

АРХИВ ПОГОДЫ в Удинске

Время (UTC), дата Ветер
(напр.,м/с)
 
Видим.   Явления Облачность Т
(С)
Тd
(С)
f
(%)
Тe
(С)
Тes
(С)
Комфортность P
(гПа)
Po
(гПа)
Тmin
(С)
Tmax
(С)
R
(мм)
R24
(мм)
S
(см)
12 13.05 ЮВ 3 50 км 8/3 600 м
[Sc diur, vesp Ci ing]
+13.5 +1.1 43 +13 +13 1010.2 1008.4
15 13.05 ЮВ 1 50 км 6/0
[Ci fib]
+9.4 +2.5 62 +9 +9 1011.4 1009.5
18 13.05 ЮВ 2 50 км 8/3 600 м
[Sc diur, vesp Ac trans Ci ing]
+9.0 +2.1 62 +8 +8 1012.1 1010.3
21 13.05 ЮВ 1 50 км 8/0
[Ac trans Ci fib]
+9.9 +1.7 57 +10 +12 1013.1 1011.2 +6.7
00 14.05 В 2 50 км 4/0
[Ci ing]
+14.6 +2.0 42 +15 +25 1013.0 1011.2
03 14.05 В 4 50 км 8/0
[Ci ing]
+20.1 +3.2 33 +21 +30 комфорт 1012.1 1010.3
06 14.05 В 4 50 км 10/0
[Ac lent Cc]
+19.7 +4.2 36 +20 +24 1011.5 1009.7
09 14.05 В 4 50 км 10/4 600 м
[Sc Ac cuf Ci ing]
+15.8 +5.4 50 +15 +15 1011.5 1009.7 +21.2
15 14.05 ЮВ 2 50 км 10/3 600 м
[Cb cap Ac cuf Ci ing]
+9.5 +3.9 68 +8 +8 1012.8 1011.0
18 14.05 ЮВ 2 20 км 10/4 600 м
[Cb cap Ac cuf Ci ing]
+7.5 +3.8 77 +6 +6 1012.9 1011.0
21 14.05 ЮВ 1 50 км 10/0
[Cc]
+8.5 +4.4 75 +8 +10 1013.0 1011.1 +7.2
00 15.05 В 2 50 км 10/0
[Cc]
+15.6 +3.9 46 +16 +24 1011.8 1010.0
03 15.05 Ю 2 50 км 5/0
[Cc]
+21.3 +3.0 30 +21 +36 комфорт 1009.6 1007.9
06 15.05 ЮВ 3 50 км 8/3 600 м
[Cb cap Ac As Ci sp]
+21.0 +2.5 29 +22 +25 комфорт 1008.5 1006.7
09 15.05 ЮВ 5 50 км 10/5 600 м
[Cb cap Ac As Ci]
+16.9 +2.7 39 +16 +16 1008.7 1006.9 +22.4
12 15.05 З 1 50 км 8/3 600 м
[Sc Ci ing]
+12.2 +7.2 71 +12 +12 1010.0 1008.2
15 15.05 ЮВ 1 50 км 10/4 600 м
[Cb cap Ac trans Ci ing]
+9.1 +5.7 79 +9 +9 1010.9 1009.1
18 15.05 ЮВ 2 50 км 5/3 600 м
[Sc Ci fib]
+7.6 +4.8 82 +6 +6 1010.6 1008.8
21 15.05 ЮВ 1 50 км 10/0
[Ac lent Ci]
+10.7 +5.6 71 +11 +12 1011.5 1009.7 +7.0
00 16.05 В 5 50 км 8/0
[Ac lent Ci ing]
+14.3 +6.6 60 +13 +16 1010.1 1008.3
03 16.05 В 3 50 км 10/0
[Ac trans Cs]
+17.9 +7.2 50 +18 +27 1008.5 1006.7
06 16.05 ЮВ 3 50 км 10/0
[Ci ing]
+18.9 +7.8 48 +20 +26 1007.0 1005.3
09 16.05 ЮВ 1 50 км 5/0
[Ac lent Ci fib]
+17.3 +7.6 53 +18 +19 1006.1 1004.3 +19.2
12 16.05 ЮВ 3
{10}
50 км 10/6 600 м
[Cb cap Ac trans Ci ing]
+13.6 +5.5 58 +13 +13 1007.1 1005.3
15 16.05 ЮВ 2 50 км 10/8 600 м
[Cb cap Ac As Ci ing]
+12.1 +5.3 63 +11 +11 1006.7 1004.9
18 16.05 Ю 2 50 км 10/5 600 м
[Cb cap Ac As Ci ing]
+9.9 +5.4 74 +8 +8 1006.5 1004.7
21 16.05 В 1 50 км 8/1 600 м
[Sc Ac As Ci]
+9.9 +6.0 77 +10 +11 1008.6 1006.8 +9.0
00 17.05 Ю 1 50 км 8/0
[Ci ing]
+19.4 +5.5 40 +21 +32 комфорт 1008.2 1006.5
03 17.05 ЮВ 4 50 км 10/3 600 м
[Cb cap Ci ing]
+21.0 +5.5 36 +22 +28 комфорт 1006.2 1004.5
06 17.05 ЮВ 2 10 км слаб. ливневой дождь 10/8 600 м
[Cb cap Ci ing]
+15.9 +9.0 64 +16 +17 1005.4 1003.7
09 17.05 З 1 10 км слаб. ливневой дождь 10/8 600 м
[Cb cap Ci ing]
+11.3 +10.4 94 +11 +11 1004.9 1003.1 +21.5 4
12 17.05 З 1 20 км {ливн. осадки} 10/8 600 м
[Cb cap Ci ing]
+9.5 +8.7 95 +9 +9 1006.0 1004.1
15 17.05 СЗ 2 20 км 10/6 600 м
[Cb cap Ci ing]
+7.5 +6.3 92 +5 +5 1007.7 1005.9
18 17.05 штиль 0 20 км 10/0
[Ci ing]
+6.2 +5.5 95 +5 +5 1007.5 1005.6
21 17.05 ЮВ 2 500 м туман ?/? +6.5 +6.1 97 +4 +4 1007.1 1005.3 +5.8 3
00 18.05 штиль 0 10 км {туман} 10/8 600 м
[St Ac trans Ci ing]
+8.8 +7.7 93 +8 +9 1004.5 1002.7
03 18.05 СВ 1 20 км 8/3 600 м
[Sc Ac lent Ci ing]
+11.9 +9.4 85 +12 +20 1001.6 999.8
06 18.05 ЮЗ 2 50 км 10/3 600 м
[Sc diur, vesp Ac As Ci]
+19.5 +5.8 41 +21 +24 комфорт 1000.9 999.1
09 18.05 ЮЗ 2 50 км 10/3 600 м
[Sc Ac As Ci ing]
+18.4 +7.8 50 +19 +20 1000.6 998.8 +20.0
12 18.05 С 4 20 км 10/4 600 м
[Cb cap Ci ing]
+9.6 +6.1 79 +7 +7 1001.9 1000.1
21 18.05 Ю 1 50 км {ливн. осадки} 3/3 600 м
[Sc]
+8.4 +6.7 89 +8 +9 1001.4 999.6 +1.8 0.0
00 19.05 З 6-12
{12}
50 км {ливн. осадки} 4/3 600 м
[Sc Ci fib]
+17.6 +1.6 34 +17 +20 1002.1 1000.3
03 19.05 З 6-11
{14}
50 км 4/3 600 м
[Sc Ac lent Ci ing]
+21.1 +0.9 26 +21 +25 комфорт 1002.5 1000.8
09 19.05 З 3
{11}
50 км 8/5 600 м
[Sc diur, vesp Ci fib]
+21.8 +0.9 25 +21 +22 комфорт 1003.8 1002.1 +23.1
21 19.05 штиль 0 50 км 10/4 600 м
[Sc Ac As Ci ing]
+6.0 +4.4 89 +5 +6 1006.7 1004.9 +1.9

 

Местоположение метеостанции Удинск (Хабаровский край, Россия): широта 52.92 долгота 138.80 высота над уровнем моря 15 м.

В архиве по умолчанию представлена погода в Удинске за последнюю неделю. Архивные данные за месяц целиком и за предыдущие месяцы, начиная с января 2011 года, Вы можете получить, выбрав интересующий диапазон дат из раскрывающегося списка и нажав кнопку "Ввод!".


*Определитесь, кто Вы:
робот инопланетянин человек

Внимание! Время в таблицах - всемирное. Для получения местного времени необходимо прибавить поправку, которая равна 10 ч.

Смотрите также архив погоды в соседних городах и на ближайших метеорологических станциях:

Погода в Богородском (Хабаровский край, Россия) (124 км)
Погода в Николаевск-на-Амуре (Хабаровский край, Россия) (130 км)
Погода в Литке (Хабаровский край, Россия) (152 км)
Погода в Мариинском (Хабаровский край, Россия) (159 км)
Погода в Джаоре (Хабаровский край, Россия) (164 км)
Погода в Им. Полины Осипенко (Хабаровский край, Россия) (165 км)
Погода в Байдукове (Хабаровский край, Россия) (179 км)
Погода в Циммермановка (Хабаровский край, Россия) (179 км)
Погода в Бурукане (Хабаровский край, Россия) (188 км)
Погода в Погибях (Сахалинская область, Россия) (205 км)

Пояснения к столбцам:

Ветер - указаны скорость ветра в м/с - средняя за 10 мин, порывы в срок и между сроками (в фигурных скобках) и направление, откуда дует ветер: С - северный, СВ - северо-восточный, В - восточный, ЮВ - юго-восточный, Ю - южный, ЮЗ - юго-западный, З - западный, СЗ - северо-западный.
Видимость - горизонтальная дальность видимости в метрах или километрах. При видимости от 1 до 10 км при отсутствии осадков обычно наблюдается дымка, при ухудшении видимости до 1 км и менее - туман. В сухую погоду видимость может ухудшаться дымом, пылью или мглою.
Явления - указаны атмосферные явления, наблюдавшиеся в срок или в последний час перед сроком; фигурными скобками обозначены явления, наблюдавшиеся между сроками (за 1-3 часа до срока); квадратными скобками обозначены град или гололедные отложения с указанием их диаметра в мм.
Облачность - указаны через наклонную черту общая и нижняя облачность в баллах и высота нижней границы облаков в метрах; квадратными скобками обозначены формы облаков: Ci - перистые, Cs - перисто-слоистые, Cc - перисто-кучевые, Ac - высококучевые, As - высокослоистые, Sc - слоисто-кучевые, Ns - слоисто-дождевые, Cu - кучевые, Cb - кучево-дождевые. Подробнее классификацию облаков см. в Атласе облаков (PDF).
T - Температура воздуха - температура, измеренная на высоте 2 м над землей.
Td - Температура точки росы - температура, при понижении до которой содержащийся в воздухе водяной пар достигнет насыщения.
f - Относительная влажность воздуха - влажноcть воздуха, измеренная на высоте 2 м над землей.
Te - Эффективная температура - температура, которую ощущает одетый по сезону человек в тени. Характеристика душности погоды. При расчете учитывается влияние влажности воздуха и скорости ветра на теплоощущения человека.
Tes - Эффективная температура на солнце - температура, которую ощущает человек, с поправкой на солнечный нагрев. Характеристика знойности погоды. Зависит от высоты солнца над горизонтом, облачности и скорости ветра. Ночью, в пасмурную погоду, а также при ветре 12 м/с и более поправка равна нулю.
P - Атмосферное давление - приведенное к уровню моря атмосферное давление.
Po - Атмосферное давление - измеренное на уровне метеостанции атмосферное давление.
Tmin - Минимальная температура - минимум температуры воздуха на высоте 2 м над землей.
Tmax - Максимальная температура - максимум температуры воздуха на высоте 2 м над землей.
R - Количество осадков - Количество выпавших осадков за период времени, мм. При наведении курсора мыши на число - период времени, за который выпало указанное количество осадков.
R24 - Количество осадков - Количество выпавших осадков за 24 часа, мм.
S - Снежный покров - Высота снежного покрова, см. При наведении курсора мыши на число - состояние снежного покрова и степень покрытия местности в баллах.